Starlink 34297

operational
NORAD ID: 64261 Int'l Des: 2025-120 Owner: SPXS Country: US Constellation: starlink
LEOCIRCULAR

Starlink 34297について

説明を読み込み中...

リアルタイム位置

3D地球を読み込み中...

次回通過

高度履歴

Altitude vs Time

uPlot chart will show altitude changes over time

軌道要素

1 64261U 25120F 25261.04389190 .00036114 00000-0 12270-2 0 9998
2 64261 53.1580 198.5954 0002087 132.4864 227.6313 15.30159613 17386
Epoch: Sep 18, 2025 • Age: 25 hours

現在のステータス

高度 481.9 km
速度 7.62 km/s
衛星直下点 -19.70°S, 149.65°E
打ち上げ日 Jun 4, 2025
運用期間 0.2 years
タイプ internet

技術仕様

分類 Payload
質量 575.00 kg
乾燥質量 530.00 kg
総質量 575.00 kg
長さ 0.30 m
直径 4.10 m
スパン 29.00 m
形状 Box + pan
製造者 SPXS
バスタイプ Starlink V2MO
フェーズステータス In Orbit
所有者/国 SPXS/US

大規模コンステレーション

Loading constellations...